Погода в Стшельце-Краеньске

Польша     52°52′39″N   15°31′55″E
темп.,
°C
ветер,
м/с
пор.,
м/с
влажн.,
%
обл.,
%
осадки,
мм/ч
давл.,
гПа
погр.,
м
1 марта, пн
пн101:00+2з239281 0.0 103546
04:00+1з23963 0.0 103543
07:00+1з23961 0.0 103536
10:00+5з34837 0.0 1035297
13:00+9з34684 0.0 1035527
16:00+9з34700 0.0 1034529
19:00+5з23870 0.0 103424
22:00+4з23900 0.0 103439
2 марта, вт
вт201:00+3з23920 0.0 103540
04:00+2з34920 0.0 103360
07:00+1зсз33900 0.0 103454
10:00+6зсз35760 0.0 1034278
13:00+10зсз35580 0.0 1034474
16:00+10сз35600 0.0 1032539
19:00+5с22780 0.0 103322
22:00+3ссв22850 0.0 103322
3 марта, ср
ср301:00+2в11870 0.0 103322
04:00+2ююв12880 0.0 103222
07:00+1ююв12890 0.0 103122
10:00+7ю23690 0.0 1030247
13:00+11ююз24560 0.0 1028493
16:00+11ююз24610 0.0 1024478
19:00+6юз34772 0.0 102354
22:00+5зюз36880 0.0 1021108
4 марта, чт
чт401:00+4з489015 0.0 1019163
04:00+3з47941 0.0 1017153
07:00+4з389642 0.0 1016273
10:00+6зсз478252 0.0 1015474
13:00+7зсз466576 0.0 1014709
16:00+7зсз4567100 0.0 1013956
19:00+3ссв3683100 0.0 1012220
22:00+4с2579100 0.0 1013470
5 марта, пт
пт501:00+2ссв3596100 0.1 1013329
04:000св5894100 0.7 1013612
07:00−1ссв5108299 0.9 1016735
10:00+2ссв686047 0.0 10181358
13:00+3с574965 0.1 10201704
16:00+2с785466 0.3 10211434
19:00−1с5116550 0.3 1024499
22:00−2сз36670 0.0 1027192